Time,TemperatureF,DewpointF,PressureIn,WindDirection,WindDirectionDegrees,WindSpeedMPH,WindSpeedGustMPH,Humidity,HourlyPrecipIn,Conditions,Clouds,dailyrainin,SoftwareType,DateUTC
2013-03-05 00:01:00,51.3,45.0,30.03,SSE,157,2.0,13.0,79,0.00,,,0.00,WeatherTracker,2013-03-05 06:01:00,
2013-03-05 00:06:00,51.3,45.0,30.03,South,177,2.0,9.0,79,0.00,,,0.00,WeatherTracker,2013-03-05 06:06:00,
2013-03-05 00:11:00,51.3,45.0,30.02,SSE,150,6.0,9.0,79,0.00,,,0.00,WeatherTracker,2013-03-05 06:11:00,
2013-03-05 00:16:00,51.3,45.0,30.03,ESE,121,5.0,10.0,79,0.00,,,0.00,WeatherTracker,2013-03-05 06:16:00,
2013-03-05 00:21:00,51.3,45.0,30.02,South,183,3.0,10.0,79,0.00,,,0.00,WeatherTracker,2013-03-05 06:21:00,
2013-03-05 00:26:00,51.3,45.0,30.03,SSW,198,3.0,9.0,79,0.00,,,0.00,WeatherTracker,2013-03-05 06:26:00,
2013-03-05 00:31:00,51.4,45.4,30.03,SSE,165,2.0,8.0,80,0.00,,,0.00,WeatherTracker,2013-03-05 06:31:00,
2013-03-05 00:36:00,51.4,45.4,30.04,SE,133,2.0,8.0,80,0.00,,,0.00,WeatherTracker,2013-03-05 06:36:00,
2013-03-05 00:41:00,51.4,45.4,30.04,SE,146,5.0,8.0,80,0.00,,,0.00,WeatherTracker,2013-03-05 06:41:00,
2013-03-05 00:46:00,51.5,45.5,30.04,South,182,3.0,8.0,80,0.00,,,0.00,WeatherTracker,2013-03-05 06:46:00,
2013-03-05 00:51:00,51.5,45.5,30.04,SE,142,4.0,8.0,80,0.00,,,0.00,WeatherTracker,2013-03-05 06:51:00,
2013-03-05 00:56:00,51.5,45.5,30.04,South,171,1.0,7.0,80,0.00,,,0.00,WeatherTracker,2013-03-05 06:56:00,
2013-03-05 01:01:00,51.6,45.6,30.04,SSE,149,4.0,7.0,80,0.00,,,0.00,WeatherTracker,2013-03-05 07:01:00,
2013-03-05 01:06:00,51.7,45.7,30.04,SE,138,0.0,7.0,80,0.00,,,0.00,WeatherTracker,2013-03-05 07:06:00,
2013-03-05 01:11:00,51.7,46.1,30.04,SSE,164,0.0,6.0,81,0.00,,,0.00,WeatherTracker,2013-03-05 07:11:00,
2013-03-05 01:16:00,51.7,46.1,30.04,SE,146,2.0,7.0,81,0.00,,,0.00,WeatherTracker,2013-03-05 07:16:00,
2013-03-05 01:21:00,51.8,46.2,30.04,SSE,168,4.0,7.0,81,0.00,,,0.00,WeatherTracker,2013-03-05 07:21:00,
2013-03-05 01:26:00,51.8,46.2,30.04,SSE,154,0.0,6.0,81,0.00,,,0.00,WeatherTracker,2013-03-05 07:26:00,
2013-03-05 01:31:00,51.9,46.6,30.04,ESE,118,1.0,6.0,82,0.00,,,0.00,WeatherTracker,2013-03-05 07:31:00,
2013-03-05 01:37:00,52.0,46.7,30.05,WNW,292,3.0,6.0,82,0.00,,,0.00,WeatherTracker,2013-03-05 07:37:00,
2013-03-05 01:42:00,52.0,46.7,30.05,NW,312,1.0,5.0,82,0.00,,,0.00,WeatherTracker,2013-03-05 07:42:00,
2013-03-05 01:47:00,52.1,46.8,30.05,SSE,163,0.0,5.0,82,0.00,,,0.00,WeatherTracker,2013-03-05 07:47:00,
2013-03-05 01:52:00,52.1,46.8,30.05,SSE,163,1.0,4.0,82,0.00,,,0.00,WeatherTracker,2013-03-05 07:52:00,
2013-03-05 01:57:00,52.1,47.1,30.05,SSE,163,0.0,2.0,83,0.00,,,0.00,WeatherTracker,2013-03-05 07:57:00,
2013-03-05 02:02:00,52.1,47.1,30.04,SSE,163,0.0,2.0,83,0.00,,,0.00,WeatherTracker,2013-03-05 08:02:00,
2013-03-05 02:07:00,52.2,47.2,30.05,SSE,163,0.0,2.0,83,0.00,,,0.00,WeatherTracker,2013-03-05 08:07:00,
2013-03-05 02:12:00,52.2,47.2,30.05,SSE,163,0.0,2.0,83,0.00,,,0.00,WeatherTracker,2013-03-05 08:12:00,
2013-03-05 02:17:00,52.2,47.2,30.05,SSE,163,0.0,2.0,83,0.00,,,0.00,WeatherTracker,2013-03-05 08:17:00,
2013-03-05 02:22:00,52.3,47.3,30.05,SSE,162,0.0,2.0,83,0.00,,,0.00,WeatherTracker,2013-03-05 08:22:00,
2013-03-05 02:27:00,52.3,47.3,30.04,SSE,163,0.0,0.0,83,0.00,,,0.00,WeatherTracker,2013-03-05 08:27:00,
2013-03-05 02:32:00,52.3,47.6,30.04,SSE,163,0.0,0.0,84,0.00,,,0.00,WeatherTracker,2013-03-05 08:32:00,
2013-03-05 02:37:00,52.2,47.5,30.04,SSE,163,0.0,0.0,84,0.00,,,0.00,WeatherTracker,2013-03-05 08:37:00,
2013-03-05 02:42:00,52.2,47.5,30.04,SSE,163,0.0,0.0,84,0.00,,,0.00,WeatherTracker,2013-03-05 08:42:00,
2013-03-05 02:47:00,52.2,47.5,30.04,SSE,163,0.0,1.0,84,0.00,,,0.00,WeatherTracker,2013-03-05 08:47:00,
2013-03-05 02:52:00,52.2,47.5,30.04,SSE,162,0.0,2.0,84,0.00,,,0.00,WeatherTracker,2013-03-05 08:52:00,
2013-03-05 02:57:00,52.2,47.5,30.04,SSE,163,0.0,4.0,84,0.00,,,0.00,WeatherTracker,2013-03-05 08:57:00,
2013-03-05 03:02:00,52.2,47.8,30.03,SSE,162,1.0,4.0,85,0.00,,,0.00,WeatherTracker,2013-03-05 09:02:00,
2013-03-05 03:07:00,52.1,47.7,30.03,SSE,163,0.0,4.0,85,0.00,,,0.00,WeatherTracker,2013-03-05 09:07:00,
2013-03-05 03:12:00,52.1,47.7,30.03,SSE,163,0.0,4.0,85,0.00,,,0.00,WeatherTracker,2013-03-05 09:12:00,
2013-03-05 03:17:00,52.1,47.7,30.03,SSE,163,0.0,2.0,85,0.00,,,0.00,WeatherTracker,2013-03-05 09:17:00,
2013-03-05 03:23:00,52.2,47.8,30.03,SSE,163,0.0,1.0,85,0.00,,,0.00,WeatherTracker,2013-03-05 09:23:00,
2013-03-05 03:28:00,52.2,48.1,30.03,SSE,163,0.0,4.0,86,0.00,,,0.00,WeatherTracker,2013-03-05 09:28:00,
2013-03-05 03:33:00,52.2,48.1,30.03,SSE,162,0.0,4.0,86,0.00,,,0.00,WeatherTracker,2013-03-05 09:33:00,
2013-03-05 03:38:00,52.2,48.1,30.03,SSE,162,1.0,4.0,86,0.00,,,0.00,WeatherTracker,2013-03-05 09:38:00,
2013-03-05 03:43:00,52.3,48.2,30.04,SE,130,1.0,5.0,86,0.00,,,0.00,WeatherTracker,2013-03-05 09:43:00,
2013-03-05 03:48:00,52.3,48.2,30.04,SE,130,0.0,5.0,86,0.00,,,0.00,WeatherTracker,2013-03-05 09:48:00,
2013-03-05 03:53:00,52.3,48.5,30.04,SE,130,1.0,4.0,87,0.00,,,0.00,WeatherTracker,2013-03-05 09:53:00,
2013-03-05 03:58:00,52.3,48.5,30.03,SE,127,4.0,4.0,87,0.00,,,0.00,WeatherTracker,2013-03-05 09:58:00,
2013-03-05 04:03:00,52.2,48.4,30.03,SE,137,4.0,6.0,87,0.00,,,0.00,WeatherTracker,2013-03-05 10:03:00,
2013-03-05 04:08:00,52.1,48.3,30.03,ESE,117,1.0,7.0,87,0.00,,,0.00,WeatherTracker,2013-03-05 10:08:00,
2013-03-05 04:13:00,52.0,48.3,30.03,South,169,1.0,7.0,87,0.00,,,0.00,WeatherTracker,2013-03-05 10:13:00,
2013-03-05 04:18:00,52.0,48.3,30.03,SSE,147,1.0,7.0,87,0.00,,,0.00,WeatherTracker,2013-03-05 10:18:00,
2013-03-05 04:23:00,51.9,48.2,30.03,SSE,165,2.0,7.0,87,0.00,,,0.00,WeatherTracker,2013-03-05 10:23:00,
2013-03-05 04:28:00,51.8,48.1,30.03,SSE,153,4.0,7.0,87,0.00,,,0.00,WeatherTracker,2013-03-05 10:28:00,
2013-03-05 04:33:00,51.8,48.4,30.04,ESE,117,1.0,6.0,88,0.00,,,0.00,WeatherTracker,2013-03-05 10:33:00,
2013-03-05 04:38:00,51.8,48.4,30.04,South,173,2.0,6.0,88,0.00,,,0.00,WeatherTracker,2013-03-05 10:38:00,
2013-03-05 04:43:00,51.8,48.4,30.04,South,171,0.0,6.0,88,0.00,,,0.00,WeatherTracker,2013-03-05 10:43:00,
2013-03-05 04:48:00,51.8,48.4,30.04,SSE,167,0.0,5.0,88,0.00,,,0.00,WeatherTracker,2013-03-05 10:48:00,
2013-03-05 04:53:00,51.8,48.4,30.03,ESE,113,2.0,6.0,88,0.00,,,0.00,WeatherTracker,2013-03-05 10:53:00,
2013-03-05 04:58:00,51.8,48.4,30.03,SE,144,0.0,6.0,88,0.00,,,0.00,WeatherTracker,2013-03-05 10:58:00,
2013-03-05 05:03:00,51.8,48.4,30.02,SSE,153,4.0,6.0,88,0.00,,,0.00,WeatherTracker,2013-03-05 11:03:00,
2013-03-05 05:08:00,51.7,48.6,30.03,SE,142,1.0,6.0,89,0.00,,,0.00,WeatherTracker,2013-03-05 11:08:00,
2013-03-05 05:13:00,51.7,48.6,30.03,SE,145,4.0,7.0,89,0.00,,,0.00,WeatherTracker,2013-03-05 11:13:00,
2013-03-05 05:18:00,51.8,48.7,30.03,South,188,3.0,7.0,89,0.00,,,0.00,WeatherTracker,2013-03-05 11:18:00,
2013-03-05 05:23:00,51.8,48.7,30.03,SE,131,2.0,7.0,89,0.00,,,0.00,WeatherTracker,2013-03-05 11:23:00,
2013-03-05 05:28:00,51.9,49.1,30.04,SE,144,2.0,6.0,90,0.00,,,0.00,WeatherTracker,2013-03-05 11:28:00,
2013-03-05 05:33:00,51.9,49.1,30.04,SE,127,6.0,6.0,90,0.00,,,0.00,WeatherTracker,2013-03-05 11:33:00,
2013-03-05 05:38:00,52.0,49.2,30.04,SE,135,0.0,7.0,90,0.00,,,0.00,WeatherTracker,2013-03-05 11:38:00,
2013-03-05 05:44:00,52.1,49.3,30.04,SSE,158,2.0,7.0,90,0.00,,,0.00,WeatherTracker,2013-03-05 11:44:00,
2013-03-05 05:49:00,52.2,49.4,30.04,South,169,5.0,6.0,90,0.00,,,0.00,WeatherTracker,2013-03-05 11:49:00,
2013-03-05 05:54:00,52.3,49.5,30.04,South,175,1.0,8.0,90,0.00,,,0.00,WeatherTracker,2013-03-05 11:54:00,
2013-03-05 05:59:00,52.3,49.5,30.03,South,176,0.0,8.0,90,0.00,,,0.00,WeatherTracker,2013-03-05 11:59:00,
2013-03-05 06:04:00,52.3,49.5,30.04,South,179,4.0,7.0,90,0.00,,,0.00,WeatherTracker,2013-03-05 12:04:00,
2013-03-05 06:09:00,52.4,49.6,30.03,SSE,154,2.0,7.0,90,0.00,,,0.00,WeatherTracker,2013-03-05 12:09:00,
2013-03-05 06:14:00,52.4,49.6,30.04,South,177,5.0,8.0,90,0.00,,,0.00,WeatherTracker,2013-03-05 12:14:00,
2013-03-05 06:19:00,52.5,49.9,30.04,SSE,167,0.0,8.0,91,0.00,,,0.00,WeatherTracker,2013-03-05 12:19:00,
2013-03-05 06:24:00,52.6,50.0,30.04,South,181,2.0,8.0,91,0.00,,,0.00,WeatherTracker,2013-03-05 12:24:00,
2013-03-05 06:29:00,52.7,50.1,30.04,South,186,0.0,6.0,91,0.00,,,0.00,WeatherTracker,2013-03-05 12:29:00,
2013-03-05 06:34:00,52.8,50.2,30.04,SE,140,4.0,6.0,91,0.00,,,0.00,WeatherTracker,2013-03-05 12:34:00,
2013-03-05 06:39:00,53.0,50.4,30.04,ESE,117,4.0,5.0,91,0.00,,,0.00,WeatherTracker,2013-03-05 12:39:00,
2013-03-05 06:44:00,53.2,50.6,30.04,SSE,168,1.0,6.0,91,0.00,,,0.00,WeatherTracker,2013-03-05 12:44:00,
2013-03-05 06:49:00,53.3,50.7,30.04,SSE,152,2.0,8.0,91,0.00,,,0.00,WeatherTracker,2013-03-05 12:49:00,
2013-03-05 06:54:00,53.5,50.9,30.04,SSE,165,4.0,8.0,91,0.00,,,0.00,WeatherTracker,2013-03-05 12:54:00,
2013-03-05 06:59:00,53.8,51.2,30.04,SE,144,4.0,7.0,91,0.00,,,0.00,WeatherTracker,2013-03-05 12:59:00,
2013-03-05 07:04:00,53.9,51.3,30.05,South,173,2.0,7.0,91,0.00,,,0.00,WeatherTracker,2013-03-05 13:04:00,
2013-03-05 07:09:00,54.1,51.5,30.04,SSE,153,4.0,7.0,91,0.00,,,0.00,WeatherTracker,2013-03-05 13:09:00,
2013-03-05 07:14:00,54.3,51.4,30.05,SSE,150,0.0,6.0,90,0.00,,,0.00,WeatherTracker,2013-03-05 13:14:00,
2013-03-05 07:19:00,54.5,51.9,30.05,SE,136,0.0,5.0,91,0.00,,,0.00,WeatherTracker,2013-03-05 13:19:00,
2013-03-05 07:24:00,54.6,51.7,30.05,SE,136,0.0,5.0,90,0.00,,,0.00,WeatherTracker,2013-03-05 13:24:00,
2013-03-05 07:29:00,54.7,51.8,30.05,SE,136,0.0,2.0,90,0.00,,,0.00,WeatherTracker,2013-03-05 13:29:00,
2013-03-05 07:34:00,54.8,51.9,30.04,SE,136,2.0,5.0,90,0.00,,,0.00,WeatherTracker,2013-03-05 13:34:00,
2013-03-05 07:39:00,55.0,52.1,30.04,South,169,4.0,7.0,90,0.00,,,0.00,WeatherTracker,2013-03-05 13:39:00,
2013-03-05 07:44:00,55.2,52.3,30.03,ESE,121,4.0,7.0,90,0.00,,,0.00,WeatherTracker,2013-03-05 13:44:00,
2013-03-05 07:49:00,55.3,52.4,30.02,SSE,157,4.0,6.0,90,0.00,,,0.00,WeatherTracker,2013-03-05 13:49:00,
2013-03-05 07:55:00,55.5,52.6,30.01,SE,145,2.0,6.0,90,0.00,,,0.00,WeatherTracker,2013-03-05 13:55:00,
2013-03-05 08:00:00,55.6,52.7,30.04,SE,146,0.0,7.0,90,0.00,,,0.00,WeatherTracker,2013-03-05 14:00:00,
2013-03-05 08:05:00,55.7,52.8,30.03,SE,134,4.0,7.0,90,0.00,,,0.00,WeatherTracker,2013-03-05 14:05:00,
2013-03-05 08:10:00,56.0,53.1,29.99,SE,140,5.0,9.0,90,0.00,,,0.00,WeatherTracker,2013-03-05 14:10:00,
2013-03-05 08:15:00,56.3,53.4,30.03,South,173,0.0,10.0,90,0.00,,,0.00,WeatherTracker,2013-03-05 14:15:00,
2013-03-05 08:20:00,56.7,53.5,30.04,SSW,202,2.0,10.0,89,0.00,,,0.00,WeatherTracker,2013-03-05 14:20:00,
2013-03-05 08:25:00,56.8,53.6,30.05,SW,225,2.0,5.0,89,0.00,,,0.00,WeatherTracker,2013-03-05 14:25:00,
2013-03-05 08:30:00,56.9,53.7,30.04,South,171,2.0,5.0,89,0.00,,,0.00,WeatherTracker,2013-03-05 14:30:00,
2013-03-05 08:35:00,57.1,53.9,30.04,South,171,2.0,5.0,89,0.00,,,0.00,WeatherTracker,2013-03-05 14:35:00,
2013-03-05 08:40:00,57.5,54.6,30.04,SE,135,4.0,5.0,90,0.00,,,0.00,WeatherTracker,2013-03-05 14:40:00,
2013-03-05 08:45:00,58.4,56.1,30.04,South,191,2.0,7.0,92,0.00,,,0.00,WeatherTracker,2013-03-05 14:45:00,
2013-03-05 08:50:00,60.0,56.4,30.05,SSW,198,3.0,8.0,88,0.00,,,0.00,WeatherTracker,2013-03-05 14:50:00,
2013-03-05 08:55:00,60.5,56.3,30.05,South,184,2.0,8.0,86,0.00,,,0.00,WeatherTracker,2013-03-05 14:55:00,
2013-03-05 09:00:00,60.7,56.2,30.04,SSE,159,1.0,8.0,85,0.00,,,0.00,WeatherTracker,2013-03-05 15:00:00,
2013-03-05 09:05:00,60.7,56.2,30.04,South,180,3.0,7.0,85,0.00,,,0.00,WeatherTracker,2013-03-05 15:05:00,
2013-03-05 09:10:00,60.8,56.3,30.05,South,171,6.0,7.0,85,0.00,,,0.00,WeatherTracker,2013-03-05 15:10:00,
2013-03-05 09:15:00,61.1,56.9,30.05,SSW,213,5.0,8.0,86,0.00,,,0.00,WeatherTracker,2013-03-05 15:15:00,
2013-03-05 09:21:00,61.6,57.4,30.05,SSW,209,6.0,9.0,86,0.00,,,0.00,WeatherTracker,2013-03-05 15:21:00,
2013-03-05 09:26:00,62.3,57.4,30.06,South,188,5.0,11.0,84,0.00,,,0.00,WeatherTracker,2013-03-05 15:26:00,
2013-03-05 09:31:00,62.5,57.6,30.06,SW,221,4.0,11.0,84,0.00,,,0.00,WeatherTracker,2013-03-05 15:31:00,
2013-03-05 09:36:00,62.5,57.6,30.05,WSW,240,3.0,8.0,84,0.00,,,0.00,WeatherTracker,2013-03-05 15:36:00,
2013-03-05 09:41:00,62.7,57.8,30.05,WSW,246,2.0,8.0,84,0.00,,,0.00,WeatherTracker,2013-03-05 15:41:00,
2013-03-05 09:46:00,63.4,58.1,30.04,WSW,246,2.0,6.0,83,0.00,,,0.00,WeatherTracker,2013-03-05 15:46:00,
2013-03-05 09:51:00,63.5,58.2,30.04,SSW,209,5.0,6.0,83,0.00,,,0.00,WeatherTracker,2013-03-05 15:51:00,
2013-03-05 09:56:00,63.5,58.2,30.04,South,188,5.0,9.0,83,0.00,,,0.00,WeatherTracker,2013-03-05 15:56:00,
2013-03-05 10:01:00,63.6,58.7,30.04,West,269,4.0,9.0,84,0.00,,,0.00,WeatherTracker,2013-03-05 16:01:00,
2013-03-05 10:06:00,63.9,58.6,30.03,WSW,237,7.0,9.0,83,0.00,,,0.00,WeatherTracker,2013-03-05 16:06:00,
2013-03-05 10:11:00,64.5,59.2,30.03,West,262,5.0,9.0,83,0.00,,,0.00,WeatherTracker,2013-03-05 16:11:00,
2013-03-05 10:16:00,66.3,59.9,30.02,WSW,241,3.0,10.0,80,0.00,,,0.00,WeatherTracker,2013-03-05 16:16:00,
2013-03-05 10:21:00,67.3,59.8,30.02,SW,224,6.0,14.0,77,0.00,,,0.00,WeatherTracker,2013-03-05 16:21:00,
2013-03-05 10:26:00,68.7,61.2,30.02,SW,223,8.0,14.0,77,0.00,,,0.00,WeatherTracker,2013-03-05 16:26:00,
2013-03-05 10:31:00,68.8,60.2,30.02,SSW,212,6.0,12.0,74,0.00,,,0.00,WeatherTracker,2013-03-05 16:31:00,
2013-03-05 10:36:00,68.6,60.0,30.01,WSW,250,5.0,16.0,74,0.00,,,0.00,WeatherTracker,2013-03-05 16:36:00,
2013-03-05 10:41:00,69.0,60.4,30.01,SW,232,6.0,16.0,74,0.00,,,0.00,WeatherTracker,2013-03-05 16:41:00,
2013-03-05 10:47:00,69.0,60.4,30.01,WSW,257,5.0,17.0,74,0.00,,,0.00,WeatherTracker,2013-03-05 16:47:00,
2013-03-05 10:52:00,69.3,60.3,30.00,WSW,247,5.0,17.0,73,0.00,,,0.00,WeatherTracker,2013-03-05 16:52:00,
2013-03-05 10:57:00,69.3,60.3,30.00,WSW,255,12.0,13.0,73,0.00,,,0.00,WeatherTracker,2013-03-05 16:57:00,
2013-03-05 11:02:00,69.4,60.0,30.00,WSW,249,10.0,17.0,72,0.00,,,0.00,WeatherTracker,2013-03-05 17:02:00,
2013-03-05 11:07:00,69.4,60.0,30.00,West,259,7.0,17.0,72,0.00,,,0.00,WeatherTracker,2013-03-05 17:07:00,
2013-03-05 11:12:00,69.5,59.7,30.00,WSW,246,9.0,14.0,71,0.00,,,0.00,WeatherTracker,2013-03-05 17:12:00,
2013-03-05 11:17:00,69.0,58.4,30.00,NW,310,11.0,20.0,69,0.00,,,0.00,WeatherTracker,2013-03-05 17:17:00,
2013-03-05 11:22:00,68.3,58.9,29.99,WNW,285,7.0,20.0,72,0.00,,,0.00,WeatherTracker,2013-03-05 17:22:00,
2013-03-05 11:27:00,68.2,58.8,29.99,SW,234,6.0,18.0,72,0.00,,,0.00,WeatherTracker,2013-03-05 17:27:00,
2013-03-05 11:32:00,68.9,59.9,29.98,WSW,254,8.0,14.0,73,0.00,,,0.00,WeatherTracker,2013-03-05 17:32:00,
2013-03-05 11:37:00,70.1,60.2,29.98,SW,233,11.0,14.0,71,0.00,,,0.00,WeatherTracker,2013-03-05 17:37:00,
2013-03-05 11:42:00,70.8,59.7,29.98,SW,228,12.0,19.0,68,0.00,,,0.00,WeatherTracker,2013-03-05 17:42:00,
2013-03-05 11:47:00,71.5,59.1,29.97,SW,234,8.0,20.0,65,0.00,,,0.00,WeatherTracker,2013-03-05 17:47:00,
2013-03-05 11:52:00,71.7,59.3,29.97,WSW,248,9.0,22.0,65,0.00,,,0.00,WeatherTracker,2013-03-05 17:52:00,
2013-03-05 11:57:00,72.1,58.3,29.96,WSW,240,12.0,22.0,62,0.00,,,0.00,WeatherTracker,2013-03-05 17:57:00,
2013-03-05 12:03:00,73.1,58.8,29.96,SW,217,12.0,22.0,61,0.00,,,0.00,WeatherTracker,2013-03-05 18:03:00,
2013-03-05 12:08:00,73.0,57.8,29.95,SW,225,8.0,22.0,59,0.00,,,0.00,WeatherTracker,2013-03-05 18:08:00,
2013-03-05 12:13:00,73.1,58.4,29.95,SW,234,6.0,22.0,60,0.00,,,0.00,WeatherTracker,2013-03-05 18:13:00,
2013-03-05 12:18:00,73.2,58.0,29.94,SW,236,10.0,22.0,59,0.00,,,0.00,WeatherTracker,2013-03-05 18:18:00,
2013-03-05 12:23:00,73.7,58.5,29.94,SW,223,14.0,20.0,59,0.00,,,0.00,WeatherTracker,2013-03-05 18:23:00,
2013-03-05 12:28:00,74.0,57.8,29.93,SW,221,8.0,20.0,57,0.00,,,0.00,WeatherTracker,2013-03-05 18:28:00,
2013-03-05 12:33:00,74.1,57.9,29.93,SW,232,15.0,19.0,57,0.00,,,0.00,WeatherTracker,2013-03-05 18:33:00,
2013-03-05 12:38:00,74.5,58.3,29.93,South,189,7.0,21.0,57,0.00,,,0.00,WeatherTracker,2013-03-05 18:38:00,
2013-03-05 12:43:00,74.6,57.3,29.92,WSW,254,8.0,24.0,55,0.00,,,0.00,WeatherTracker,2013-03-05 18:43:00,
2013-03-05 12:48:00,73.5,56.8,29.92,West,263,7.0,25.0,56,0.00,,,0.00,WeatherTracker,2013-03-05 18:48:00,
2013-03-05 12:53:00,72.6,56.5,29.92,WNW,303,13.0,25.0,57,0.00,,,0.00,WeatherTracker,2013-03-05 18:53:00,
2013-03-05 12:58:00,72.3,57.2,29.92,West,269,7.0,24.0,59,0.00,,,0.00,WeatherTracker,2013-03-05 18:58:00,
2013-03-05 13:03:00,72.1,57.0,29.92,West,277,12.0,24.0,59,0.00,,,0.00,WeatherTracker,2013-03-05 19:03:00,
2013-03-05 13:08:00,72.2,57.5,29.91,WSW,246,13.0,18.0,60,0.00,,,0.00,WeatherTracker,2013-03-05 19:08:00,
2013-03-05 13:13:00,72.7,57.5,29.91,SW,236,9.0,20.0,59,0.00,,,0.00,WeatherTracker,2013-03-05 19:13:00,
2013-03-05 13:18:00,73.2,57.0,29.91,SW,232,14.0,20.0,57,0.00,,,0.00,WeatherTracker,2013-03-05 19:18:00,
2013-03-05 13:23:00,72.8,57.1,29.91,West,259,11.0,21.0,58,0.00,,,0.00,WeatherTracker,2013-03-05 19:23:00,
2013-03-05 13:29:00,72.2,57.1,29.90,West,261,8.0,21.0,59,0.00,,,0.00,WeatherTracker,2013-03-05 19:29:00,
2013-03-05 13:34:00,71.7,57.1,29.91,WSW,237,7.0,21.0,60,0.00,,,0.00,WeatherTracker,2013-03-05 19:34:00,
2013-03-05 13:39:00,71.4,57.2,29.91,SW,228,9.0,18.0,61,0.00,,,0.00,WeatherTracker,2013-03-05 19:39:00,
2013-03-05 13:44:00,71.3,57.1,29.91,WSW,246,12.0,19.0,61,0.00,,,0.00,WeatherTracker,2013-03-05 19:44:00,
2013-03-05 13:49:00,71.3,57.6,29.90,West,263,12.0,19.0,62,0.00,,,0.00,WeatherTracker,2013-03-05 19:49:00,
2013-03-05 13:54:00,71.7,57.5,29.90,WSW,257,8.0,18.0,61,0.00,,,0.00,WeatherTracker,2013-03-05 19:54:00,
2013-03-05 13:59:00,72.1,57.9,29.90,WSW,257,7.0,17.0,61,0.00,,,0.00,WeatherTracker,2013-03-05 19:59:00,
2013-03-05 14:04:00,72.5,58.3,29.89,SW,232,15.0,17.0,61,0.00,,,0.00,WeatherTracker,2013-03-05 20:04:00,
2013-03-05 14:09:00,72.5,58.3,29.89,WSW,254,7.0,20.0,61,0.00,,,0.00,WeatherTracker,2013-03-05 20:09:00,
2013-03-05 14:14:00,72.2,58.0,29.89,WSW,239,10.0,20.0,61,0.00,,,0.00,WeatherTracker,2013-03-05 20:14:00,
2013-03-05 14:19:00,71.8,58.1,29.89,SSW,212,14.0,17.0,62,0.00,,,0.00,WeatherTracker,2013-03-05 20:19:00,
2013-03-05 14:24:00,71.3,57.6,29.89,SW,221,10.0,19.0,62,0.00,,,0.00,WeatherTracker,2013-03-05 20:24:00,
2013-03-05 14:29:00,71.0,58.2,29.89,SSW,196,2.0,19.0,64,0.00,,,0.00,WeatherTracker,2013-03-05 20:29:00,
2013-03-05 14:34:00,70.8,58.0,29.89,SW,223,8.0,17.0,64,0.00,,,0.00,WeatherTracker,2013-03-05 20:34:00,
2013-03-05 14:39:00,70.8,58.4,29.89,WSW,246,8.0,18.0,65,0.00,,,0.00,WeatherTracker,2013-03-05 20:39:00,
2013-03-05 14:44:00,70.8,58.0,29.89,SW,214,10.0,18.0,64,0.00,,,0.00,WeatherTracker,2013-03-05 20:44:00,
2013-03-05 14:49:00,71.0,58.2,29.87,WSW,251,8.0,16.0,64,0.00,,,0.00,WeatherTracker,2013-03-05 20:49:00,
2013-03-05 14:54:00,71.6,58.3,29.87,WSW,238,12.0,18.0,63,0.00,,,0.00,WeatherTracker,2013-03-05 20:54:00,
2013-03-05 15:00:00,72.0,58.7,29.87,SSW,205,9.0,18.0,63,0.00,,,0.00,WeatherTracker,2013-03-05 21:00:00,
2013-03-05 15:05:00,72.2,58.0,29.86,WSW,252,12.0,22.0,61,0.00,,,0.00,WeatherTracker,2013-03-05 21:05:00,
2013-03-05 15:10:00,72.2,58.0,29.86,SW,221,10.0,23.0,61,0.00,,,0.00,WeatherTracker,2013-03-05 21:10:00,
2013-03-05 15:15:00,72.4,58.6,29.86,SW,215,14.0,23.0,62,0.00,,,0.00,WeatherTracker,2013-03-05 21:15:00,
2013-03-05 15:20:00,72.8,59.0,29.85,SSW,203,7.0,18.0,62,0.00,,,0.00,WeatherTracker,2013-03-05 21:20:00,
2013-03-05 15:25:00,73.1,58.8,29.85,WSW,240,15.0,18.0,61,0.00,,,0.00,WeatherTracker,2013-03-05 21:25:00,
2013-03-05 15:30:00,73.0,58.7,29.85,SW,236,9.0,19.0,61,0.00,,,0.00,WeatherTracker,2013-03-05 21:30:00,
2013-03-05 15:35:00,72.8,59.0,29.85,SSW,198,21.0,21.0,62,0.00,,,0.00,WeatherTracker,2013-03-05 21:35:00,
2013-03-05 15:40:00,72.7,58.9,29.86,West,261,7.0,24.0,62,0.00,,,0.00,WeatherTracker,2013-03-05 21:40:00,
2013-03-05 15:45:00,72.7,58.9,29.86,SSW,207,11.0,24.0,62,0.00,,,0.00,WeatherTracker,2013-03-05 21:45:00,
2013-03-05 15:50:00,72.5,58.7,29.85,SW,221,11.0,18.0,62,0.00,,,0.00,WeatherTracker,2013-03-05 21:50:00,
2013-03-05 15:55:00,72.2,58.9,29.85,SW,233,12.0,23.0,63,0.00,,,0.00,WeatherTracker,2013-03-05 21:55:00,
2013-03-05 16:00:00,71.6,58.8,29.86,WSW,247,8.0,23.0,64,0.00,,,0.00,WeatherTracker,2013-03-05 22:00:00,
2013-03-05 16:05:00,71.1,58.7,29.86,WSW,239,6.0,20.0,65,0.00,,,0.00,WeatherTracker,2013-03-05 22:05:00,
2013-03-05 16:10:00,70.9,58.5,29.86,West,264,12.0,21.0,65,0.00,,,0.00,WeatherTracker,2013-03-05 22:10:00,
2013-03-05 16:15:00,70.7,58.8,29.86,WSW,250,9.0,21.0,66,0.00,,,0.00,WeatherTracker,2013-03-05 22:15:00,
2013-03-05 16:20:00,70.5,58.6,29.86,WSW,252,8.0,21.0,66,0.00,,,0.00,WeatherTracker,2013-03-05 22:20:00,
2013-03-05 16:25:00,70.4,58.9,29.86,WSW,246,15.0,21.0,67,0.00,,,0.00,WeatherTracker,2013-03-05 22:25:00,
2013-03-05 16:30:00,70.3,58.8,29.86,WSW,244,13.0,19.0,67,0.00,,,0.00,WeatherTracker,2013-03-05 22:30:00,
2013-03-05 16:35:00,70.1,59.0,29.86,WSW,249,8.0,20.0,68,0.00,,,0.00,WeatherTracker,2013-03-05 22:35:00,
2013-03-05 16:40:00,70.0,58.9,29.87,WSW,251,8.0,20.0,68,0.00,,,0.00,WeatherTracker,2013-03-05 22:40:00,
2013-03-05 16:46:00,69.8,59.2,29.87,WSW,255,6.0,20.0,69,0.00,,,0.00,WeatherTracker,2013-03-05 22:46:00,
2013-03-05 16:51:00,69.7,59.5,29.88,WSW,254,12.0,17.0,70,0.00,,,0.00,WeatherTracker,2013-03-05 22:51:00,
2013-03-05 16:56:00,69.3,59.5,29.88,WNW,284,6.0,16.0,71,0.00,,,0.00,WeatherTracker,2013-03-05 22:56:00,
2013-03-05 17:01:00,68.8,60.2,29.90,North,350,21.0,21.0,74,0.00,,,0.00,WeatherTracker,2013-03-05 23:01:00,
2013-03-05 17:06:00,65.1,57.0,29.91,WNW,294,14.0,27.0,75,0.03,,,0.03,WeatherTracker,2013-03-05 23:06:00,
2013-03-05 17:11:00,62.2,56.3,29.91,NNW,328,13.0,27.0,81,0.03,,,0.03,WeatherTracker,2013-03-05 23:11:00,
2013-03-05 17:16:00,60.9,56.0,29.91,NW,309,11.0,27.0,84,0.03,,,0.03,WeatherTracker,2013-03-05 23:16:00,
2013-03-05 17:21:00,60.4,56.2,29.92,WNW,292,8.0,15.0,86,0.03,,,0.03,WeatherTracker,2013-03-05 23:21:00,
2013-03-05 17:26:00,60.2,56.6,29.93,NW,310,6.0,13.0,88,0.03,,,0.03,WeatherTracker,2013-03-05 23:26:00,
2013-03-05 17:31:00,60.0,56.4,29.93,NW,313,7.0,12.0,88,0.03,,,0.03,WeatherTracker,2013-03-05 23:31:00,
2013-03-05 17:36:00,60.0,56.7,29.93,NW,320,4.0,12.0,89,0.03,,,0.03,WeatherTracker,2013-03-05 23:36:00,
2013-03-05 17:41:00,59.9,57.0,29.93,NW,321,4.0,9.0,90,0.03,,,0.03,WeatherTracker,2013-03-05 23:41:00,
2013-03-05 17:46:00,59.8,56.9,29.93,NW,323,5.0,9.0,90,0.03,,,0.03,WeatherTracker,2013-03-05 23:46:00,
2013-03-05 17:51:00,59.7,57.1,29.93,NW,309,5.0,9.0,91,0.03,,,0.03,WeatherTracker,2013-03-05 23:51:00,
2013-03-05 17:56:00,59.6,57.0,29.94,NW,314,4.0,8.0,91,0.03,,,0.03,WeatherTracker,2013-03-05 23:56:00,
2013-03-05 18:01:00,59.4,56.8,29.94,NNW,329,6.0,9.0,91,0.03,,,0.03,WeatherTracker,2013-03-06 00:01:00,
2013-03-05 18:06:00,59.3,56.7,29.94,NNW,328,5.0,10.0,91,0.00,,,0.03,WeatherTracker,2013-03-06 00:06:00,
2013-03-05 18:11:00,59.2,56.9,29.94,NNW,339,5.0,10.0,92,0.00,,,0.03,WeatherTracker,2013-03-06 00:11:00,
2013-03-05 18:16:00,59.0,56.7,29.95,NNW,336,8.0,10.0,92,0.00,,,0.03,WeatherTracker,2013-03-06 00:16:00,
2013-03-05 18:21:00,58.8,56.2,29.95,NNW,340,8.0,16.0,91,0.00,,,0.03,WeatherTracker,2013-03-06 00:21:00,
2013-03-05 18:26:00,58.5,55.3,29.95,NW,311,14.0,16.0,89,0.00,,,0.03,WeatherTracker,2013-03-06 00:26:00,
2013-03-05 18:31:00,58.4,54.9,29.96,NNW,344,6.0,17.0,88,0.00,,,0.03,WeatherTracker,2013-03-06 00:31:00,
2013-03-05 18:36:00,58.1,54.6,29.96,NW,323,9.0,17.0,88,0.00,,,0.03,WeatherTracker,2013-03-06 00:36:00,
2013-03-05 18:42:00,57.8,54.3,29.96,NNW,343,12.0,12.0,88,0.00,,,0.03,WeatherTracker,2013-03-06 00:42:00,
2013-03-05 18:47:00,57.5,54.0,29.97,NNW,348,8.0,13.0,88,0.00,,,0.03,WeatherTracker,2013-03-06 00:47:00,
2013-03-05 18:52:00,57.1,53.3,29.97,North,355,10.0,14.0,87,0.00,,,0.03,WeatherTracker,2013-03-06 00:52:00,
2013-03-05 18:57:00,56.6,52.5,29.97,North,350,15.0,20.0,86,0.00,,,0.03,WeatherTracker,2013-03-06 00:57:00,
2013-03-05 19:02:00,56.4,51.6,29.98,North,355,6.0,21.0,84,0.00,,,0.03,WeatherTracker,2013-03-06 01:02:00,
2013-03-05 19:07:00,56.0,51.2,29.98,NW,323,7.0,21.0,84,0.00,,,0.03,WeatherTracker,2013-03-06 01:07:00,
2013-03-05 19:12:00,55.7,50.9,29.98,North,355,10.0,13.0,84,0.00,,,0.03,WeatherTracker,2013-03-06 01:12:00,
2013-03-05 19:17:00,55.4,51.0,29.99,North,355,11.0,17.0,85,0.00,,,0.03,WeatherTracker,2013-03-06 01:17:00,
2013-03-05 19:22:00,54.8,49.7,30.00,NNW,337,21.0,24.0,83,0.00,,,0.03,WeatherTracker,2013-03-06 01:22:00,
2013-03-05 19:27:00,54.0,48.6,30.00,NNW,331,10.0,24.0,82,0.00,,,0.03,WeatherTracker,2013-03-06 01:27:00,
2013-03-05 19:32:00,53.4,48.4,30.00,NNW,329,15.0,23.0,83,0.00,,,0.03,WeatherTracker,2013-03-06 01:32:00,
2013-03-05 19:37:00,52.8,47.5,30.00,NW,311,18.0,21.0,82,0.00,,,0.03,WeatherTracker,2013-03-06 01:37:00,
2013-03-05 19:42:00,52.3,47.3,30.01,North,350,19.0,21.0,83,0.00,,,0.03,WeatherTracker,2013-03-06 01:42:00,
2013-03-05 19:47:00,51.8,46.2,30.02,NNW,346,9.0,22.0,81,0.00,,,0.03,WeatherTracker,2013-03-06 01:47:00,
2013-03-05 19:52:00,51.3,46.0,30.02,NNW,344,9.0,22.0,82,0.00,,,0.03,WeatherTracker,2013-03-06 01:52:00,
2013-03-05 19:57:00,50.8,44.9,30.02,NNW,345,11.0,23.0,80,0.00,,,0.03,WeatherTracker,2013-03-06 01:57:00,
2013-03-05 20:02:00,50.2,43.3,30.03,North,355,8.0,29.0,77,0.00,,,0.03,WeatherTracker,2013-03-06 02:02:00,
2013-03-05 20:07:00,49.8,42.9,30.03,NNW,342,9.0,29.0,77,0.00,,,0.03,WeatherTracker,2013-03-06 02:07:00,
2013-03-05 20:12:00,49.3,42.1,30.04,NNW,335,14.0,29.0,76,0.00,,,0.03,WeatherTracker,2013-03-06 02:12:00,
2013-03-05 20:18:00,49.0,41.8,30.04,NW,326,12.0,19.0,76,0.00,,,0.03,WeatherTracker,2013-03-06 02:18:00,
2013-03-05 20:23:00,48.5,41.3,30.05,NW,323,17.0,19.0,76,0.00,,,0.03,WeatherTracker,2013-03-06 02:23:00,
2013-03-05 20:28:00,48.2,40.7,30.05,NNW,335,9.0,18.0,75,0.00,,,0.03,WeatherTracker,2013-03-06 02:28:00,
2013-03-05 20:33:00,47.8,40.3,30.05,NNW,342,15.0,18.0,75,0.00,,,0.03,WeatherTracker,2013-03-06 02:33:00,
2013-03-05 20:38:00,47.4,39.9,30.05,NNW,340,15.0,18.0,75,0.00,,,0.03,WeatherTracker,2013-03-06 02:38:00,
2013-03-05 20:43:00,47.2,39.7,30.05,NW,323,9.0,17.0,75,0.00,,,0.03,WeatherTracker,2013-03-06 02:43:00,
2013-03-05 20:48:00,47.0,39.8,30.06,NW,324,10.0,19.0,76,0.00,,,0.03,WeatherTracker,2013-03-06 02:48:00,
2013-03-05 20:53:00,46.8,39.6,30.06,NNW,328,7.0,19.0,76,0.00,,,0.03,WeatherTracker,2013-03-06 02:53:00,
2013-03-05 20:58:00,46.5,39.3,30.06,NNW,340,9.0,19.0,76,0.00,,,0.03,WeatherTracker,2013-03-06 02:58:00,
2013-03-05 21:03:00,46.4,39.3,30.07,NNW,327,12.0,19.0,76,0.00,,,0.03,WeatherTracker,2013-03-06 03:03:00,
2013-03-05 21:08:00,46.3,39.2,30.07,NNW,338,7.0,18.0,76,0.00,,,0.03,WeatherTracker,2013-03-06 03:08:00,
2013-03-05 21:13:00,46.1,39.0,30.07,North,351,9.0,18.0,76,0.00,,,0.03,WeatherTracker,2013-03-06 03:13:00,
2013-03-05 21:18:00,46.0,38.9,30.08,NW,312,9.0,19.0,76,0.00,,,0.03,WeatherTracker,2013-03-06 03:18:00,
2013-03-05 21:23:00,45.9,38.8,30.08,NNW,347,12.0,19.0,76,0.00,,,0.03,WeatherTracker,2013-03-06 03:23:00,
2013-03-05 21:28:00,45.6,38.5,30.08,NW,317,10.0,14.0,76,0.00,,,0.03,WeatherTracker,2013-03-06 03:28:00,
2013-03-05 21:33:00,45.5,38.7,30.09,North,349,8.0,14.0,77,0.00,,,0.03,WeatherTracker,2013-03-06 03:33:00,
2013-03-05 21:38:00,45.3,38.5,30.08,NNW,329,6.0,13.0,77,0.00,,,0.03,WeatherTracker,2013-03-06 03:38:00,
2013-03-05 21:43:00,45.1,38.3,30.08,NNW,330,6.0,10.0,77,0.00,,,0.03,WeatherTracker,2013-03-06 03:43:00,
2013-03-05 21:48:00,45.0,38.2,30.09,NNW,346,8.0,13.0,77,0.00,,,0.03,WeatherTracker,2013-03-06 03:48:00,
2013-03-05 21:54:00,44.9,38.5,30.09,NW,321,3.0,13.0,78,0.00,,,0.03,WeatherTracker,2013-03-06 03:54:00,
2013-03-05 21:59:00,44.7,38.3,30.08,NNW,338,4.0,12.0,78,0.00,,,0.03,WeatherTracker,2013-03-06 03:59:00,
2013-03-05 22:04:00,44.5,38.4,30.09,NNW,346,5.0,8.0,79,0.00,,,0.03,WeatherTracker,2013-03-06 04:04:00,
2013-03-05 22:09:00,44.3,38.2,30.09,NNW,335,5.0,8.0,79,0.00,,,0.03,WeatherTracker,2013-03-06 04:09:00,
2013-03-05 22:14:00,44.2,38.1,30.09,NW,317,5.0,10.0,79,0.00,,,0.03,WeatherTracker,2013-03-06 04:14:00,
2013-03-05 22:19:00,44.0,38.2,30.09,NW,312,6.0,10.0,80,0.00,,,0.03,WeatherTracker,2013-03-06 04:19:00,
2013-03-05 22:24:00,43.9,38.1,30.09,NW,323,5.0,7.0,80,0.00,,,0.03,WeatherTracker,2013-03-06 04:24:00,
2013-03-05 22:29:00,43.8,38.0,30.08,NW,320,3.0,7.0,80,0.00,,,0.03,WeatherTracker,2013-03-06 04:29:00,
2013-03-05 22:34:00,43.6,37.8,30.09,NW,309,4.0,6.0,80,0.00,,,0.03,WeatherTracker,2013-03-06 04:34:00,
2013-03-05 22:39:00,43.5,38.1,30.09,NNW,327,3.0,6.0,81,0.00,,,0.03,WeatherTracker,2013-03-06 04:39:00,
2013-03-05 22:44:00,43.3,37.9,30.08,NW,319,2.0,6.0,81,0.00,,,0.03,WeatherTracker,2013-03-06 04:44:00,
2013-03-05 22:49:00,43.1,38.0,30.08,NW,319,2.0,6.0,82,0.00,,,0.03,WeatherTracker,2013-03-06 04:49:00,
2013-03-05 22:54:00,42.8,37.7,30.08,WNW,302,3.0,5.0,82,0.00,,,0.03,WeatherTracker,2013-03-06 04:54:00,
2013-03-05 22:59:00,42.6,37.8,30.08,WNW,302,2.0,5.0,83,0.00,,,0.03,WeatherTracker,2013-03-06 04:59:00,
2013-03-05 23:00:00,42.6,37.8,30.08,WNW,302,1.0,5.0,83,0.00,,,0.03,WeatherTracker,2013-03-06 05:00:00,
2013-03-05 23:05:00,42.3,37.5,30.08,WNW,302,1.0,4.0,83,0.00,,,0.03,WeatherTracker,2013-03-06 05:05:00,
2013-03-05 23:10:00,42.1,37.6,30.08,WNW,302,1.0,3.0,84,0.00,,,0.03,WeatherTracker,2013-03-06 05:10:00,
2013-03-05 23:15:00,41.9,37.4,30.08,WNW,302,1.0,3.0,84,0.00,,,0.03,WeatherTracker,2013-03-06 05:15:00,
2013-03-05 23:20:00,41.6,37.1,30.07,WNW,302,2.0,3.0,84,0.00,,,0.03,WeatherTracker,2013-03-06 05:20:00,
2013-03-05 23:25:00,41.4,37.2,30.07,WNW,302,2.0,3.0,85,0.00,,,0.03,WeatherTracker,2013-03-06 05:25:00,
2013-03-05 23:30:00,41.2,37.0,30.07,WNW,302,1.0,4.0,85,0.00,,,0.03,WeatherTracker,2013-03-06 05:30:00,
2013-03-05 23:35:00,41.0,37.1,30.07,NW,312,5.0,5.0,86,0.00,,,0.03,WeatherTracker,2013-03-06 05:35:00,
2013-03-05 23:41:00,40.9,37.3,30.07,NW,312,2.0,5.0,87,0.00,,,0.03,WeatherTracker,2013-03-06 05:41:00,
2013-03-05 23:46:00,40.9,37.3,30.07,NW,312,1.0,5.0,87,0.00,,,0.03,WeatherTracker,2013-03-06 05:46:00,
2013-03-05 23:51:00,40.8,37.2,30.07,NW,312,1.0,4.0,87,0.00,,,0.03,WeatherTracker,2013-03-06 05:51:00,
2013-03-05 23:56:00,40.7,37.1,30.07,NW,312,0.0,3.0,87,0.00,,,0.03,WeatherTracker,2013-03-06 05:56:00,